Location: The D'Auria's Ocala Star Observatory
(29.0276°N, 82.1742°W)
Time: 22:01:02
(UTC-04:00)

Daily predictions for brighter satellites

Satellite Brightness Start Highest point End
(mag) Time Altitude Azimuth Time Altitude Azimuth Time Altitude Azimuth
Cosmos 1818 3.6 19:39:02 10° NNW 19:44:29 72° ENE 19:49:51 10° SSE
Cosmos 1437 4.1 19:45:36 10° NNE 19:48:09 21° ENE 19:50:40 10° SE
Cosmos 2219 Rocket 4.1 19:44:39 10° SW 19:49:42 34° WNW 19:54:48 10° N
APEX 4.3 19:43:09 10° NNW 19:49:49 85° ENE 19:54:57 10° SSE
Meteor 2-5 Rocket 3.7 19:44:46 10° N 19:50:20 64° E 19:55:48 10° SSE
ALOS 4.1 19:48:58 10° E 19:50:33 12° ENE 19:52:09 10° NE
Aureole 2 Rocket 3.3 19:48:10 10° S 19:52:18 45° ESE 19:56:30 10° NNE
SJ-6B 3.2 19:49:43 10° SE 19:53:23 42° ENE 19:57:09 10° N
Okean 3 Rocket 4.3 19:49:37 10° NNE 19:53:46 34° E 19:57:53 10° SE
FREGAT/IRIS 3.7 19:51:07 10° SE 19:53:47 27° ENE 19:56:26 10° NNE
Cosmos 1441 Rocket 3.2 19:51:59 10° N 19:55:39 56° E 19:59:19 10° SSE
MDS-1 4.0 19:53:53 10° W 19:55:41 44° S 19:57:43 11° ESE
Helios 1B rocket 2.9 19:53:51 10° NNE 19:57:42 39° E 20:01:32 10° S
Cosmos 2278 Rocket 2.3 19:52:30 10° N 19:58:02 53° ENE 20:03:31 10° SE
Meteor 1-24 Rocket 4.1 19:53:43 10° N 19:58:58 40° ENE 20:04:01 10° SSE
Meteor 1-28 Rocket 3.2 20:00:32 10° N 20:04:15 85° WNW 20:07:57 10° SSW
Cosmos 1707 2.6 20:01:00 10° N 20:04:51 75° E 20:08:40 10° S
Cosmos 1378 3.9 20:06:14 10° NNE 20:09:33 30° E 20:12:51 10° SE
CZ-4C R/B 4.1 20:08:20 10° WSW 20:12:48 28° NW 20:17:41 10° N
OAO 3 Rocket 3.6 20:10:02 10° W 20:14:43 58° NNW 20:18:46 14° ENE
HJ-1C 3.9 20:11:43 10° SE 20:14:49 37° ENE 20:17:56 10° N
Meteor 1-29 2.9 20:15:23 10° NNE 20:18:50 59° E 20:22:16 10° S
Cosmos 2346 Rocket 4.4 20:14:30 10° N 20:20:35 89° W 20:26:37 10° S
ATLAS CENTAUR R/B 2.0 20:18:04 10° N 20:21:45 32° ENE 20:23:04 25° E
Yuri Rocket 3.6 20:18:44 10° W 20:22:46 46° SSW 20:25:22 20° SE
GPS 2-05 Rocket1 2.7 20:20:55 10° WNW 20:24:18 88° SSW 20:25:56 29° ESE
Atlas Centaur 2 3.0 20:17:52 10° W 20:26:30 87° N 20:31:50 22° E
Cosmos 2034 Rocket 3.9 20:26:51 10° S 20:32:58 63° E 20:39:10 10° NNE
Helios 1A 2.9 20:29:54 10° SSE 20:34:01 64° ENE 20:38:10 10° N
Cosmos 1452 Rocket 4.5 20:31:25 10° NNE 20:35:45 26° ENE 20:36:02 25° ENE
Cosmos 1464 Rocket 4.0 20:30:33 10° S 20:36:51 85° W 20:43:06 10° N
Meteor 2-12 Rocket 4.4 20:32:31 10° S 20:38:31 58° E 20:44:33 10° NNE
SEDSat Delta rocket 4.1 20:37:55 10° W 20:44:43 80° N 20:48:22 30° ENE
Cosmos 468 4.5 20:39:37 10° S 20:44:45 57° ESE 20:49:54 10° NNE
SL-8 R/B 3.7 20:42:28 10° SSW 20:47:08 56° SE 20:48:21 43° E
SeaSat 1 2.3 20:44:03 10° NNE 20:49:00 79° ESE 20:53:55 10° SSW
GPS 2-04 Rocket1 2.9 20:45:39 10° SW 20:48:47 46° S 20:48:47 46° S
Cosmos 1766 Rocket 3.4 20:48:27 10° N 20:52:48 68° E 20:54:05 43° SSE
In-Cosmos 22 4.2 20:47:45 10° N 20:53:31 66° E 20:57:33 20° SSE
ASTRO E2 2.8 20:49:40 10° W 20:53:41 64° N 20:54:17 55° NE
Cosmos 1953 2.4 20:51:17 10° S 20:55:17 75° W 20:59:16 10° N
CZ-4B DEB 4.4 20:57:57 27° N 20:57:57 27° N 20:59:36 10° N
SWIFT 3.9 20:54:30 10° WSW 20:57:49 22° S 20:58:01 22° S
CZ-2D R/B 4.2 21:01:17 36° NNE 21:01:17 36° NNE 21:03:48 10° N
Cosmos 1269 Rocket 3.9 20:59:04 10° S 21:04:18 68° ESE 21:09:32 10° NNE
ATLAS 5 CENTAUR R/B 2.9 21:03:35 10° SW 21:08:01 43° WNW 21:12:46 10° NNE
SL-16 R/B 4.3 21:04:49 10° WSW 21:09:34 27° WNW 21:14:22 10° N
Cosmos 724 4.5 21:03:46 10° SSW 21:09:36 71° WNW 21:15:37 10° NNE
Cosmos 1048 Rocket 4.1 21:08:20 10° S 21:18:35 12° NNE 21:18:53 10° NNE
Cosmos-2242 4.0 21:12:15 10° SSW 21:16:25 46° W 21:20:38 10° N
Resurs 01 Rocket 3.5 21:15:10 10° SSW 21:19:03 30° W 21:22:58 10° NW
H-2A R/B 4.2 21:23:13 33° NNW 21:23:13 33° NNW 21:25:28 10° NNW
ASC 2 Rocket 4.2 21:18:05 10° WSW 21:20:42 31° SW 21:20:42 31° SW
ALOS 3.0 21:26:20 41° SW 21:27:29 51° W 21:32:02 10° NNW
Timation 1 Rocket 4.4 21:22:48 10° NNW 21:28:45 75° WSW 21:29:45 61° S
NOSS 3-3 (A) 4.4 21:22:22 10° NNW 21:30:02 75° ENE 21:31:19 63° ESE
NOSS 3-3 (C) 4.4 21:22:28 10° NNW 21:30:08 74° ENE 21:31:23 63° ESE
CENTAUR R/B 3.6 21:30:13 10° SSW 21:32:48 28° SSW 21:32:48 28° SSW
Delta 168 4.3 21:30:36 10° WSW 21:36:39 65° S 21:36:49 65° SSE
ATLAS CENTAUR R/B 4.4 21:58:41 10° W 21:59:27 12° W 21:59:27 12° W
Cosmos 2369 Rocket 4.5 21:57:30 10° N 21:58:21 14° N 21:58:21 14° N
Atlas Centaur 2 3.5 22:08:20 10° W 22:14:28 47° WSW 22:14:28 47° WSW
